Regional Weather Roundup
Issued by NWS

Home | Current Version | Previous Version | Text Only | Print | Product List | Glossary Off
Versions: 1 2 3 4 5 6 7 8 9 10 11 12 13 14 15 16 17 18 19 20 21 22 23 24 25 26 27 28 29 30 31 32 33 34 35 36 37 38 39 40 41 42 43 44 45 46 47 48 49 50

324
ASUS43 KBIS 240810
RWRND

NORTH DAKOTA REGIONAL WEATHER ROUNDUP
NATIONAL WEATHER SERVICE BISMARCK ND
300 AM CDT TUE OCT 24 2017

NOTE: "FAIR" INDICATES FEW OR NO CLOUDS BELOW 12,000 FEET WITH NO
SIGNIFICANT WEATHER AND/OR OBSTRUCTIONS TO VISIBILITY.


NDZ001>003-009>011-017-240900-
NORTHWEST NORTH DAKOTA

CITY           SKY/WX    TMP DP  RH WIND       PRES   REMARKS
WILLISTON      CLEAR     38  28  67 NW12      30.39F
MINOT          CLEAR     37  30  75 NW14      30.32S
MINOT AFB      CLEAR     32  29  87 NW13      30.32R
$$

NDZ018>021-031>035-040>046-240900-
SOUTHWEST NORTH DAKOTA

CITY           SKY/WX    TMP DP  RH WIND       PRES   REMARKS
BISMARCK       CLEAR     39  30  70 NW7       30.33R
DICKINSON      CLEAR     32  26  78 W10       30.38S
GARRISON         N/A     34  30  85 NW12      30.33S
HETTINGER ARPT CLEAR     31  24  75 NW12      30.41R
$$

NDZ004>008-012>016-024-026-027-054-240900-
NORTHEAST NORTH DAKOTA

CITY           SKY/WX    TMP DP  RH WIND       PRES   REMARKS
GRAND FORKS    PTCLDY    32  29  88 NW10      30.17S
GRND FRKS AFB  CLEAR     33  28  82 NW12      30.18S
DEVILS LAKE    CLEAR     29  26  89 NW9       30.25R
$$

NDZ022-023-025-028>030-036>039-047>053-240900-
SOUTHEAST NORTH DAKOTA

CITY           SKY/WX    TMP DP  RH WIND       PRES   REMARKS
FARGO          MOCLDY    36  31  82 N21       30.14S
JAMESTOWN      CLEAR     35  29  78 NW15      30.22R
$$





USA.gov is the U.S. government's official web portal to all federal, state and local government web resources and services.